HULIANWANG JISHU SHIYAN* (58693 NORAD) Tracking and Keplerian Element Data

This shows tracking and keplerian element data for the satellite.

Feedback or suggestion? Click here.




ElementValue
Catalog58693
NameHULIANWANG JISHU SHIYAN*
Epoch Orbit197
Epoch Day13.1752466
Epoch Year2024
RAAN12.8201
Inclination50.0005
Eccentricity0.0006901
Argument of Perigee331.8702
Mean Anonmoly28.1822
Mean Motion13.86988963
Decay Rate2.2E-07
L11 58693U 23212C 24013.17524660 .00000022 00000+0 14194-3 0 9997
L22 58693 50.0005 12.8201 0006901 331.8702 28.1822 13.86988963 1978



Live tracking and technical data element details for HULIANWANG JISHU SHIYAN* (NORAD 58693). HULIANWANG JISHU SHIYAN* can be tracked NOW for your location showing map with azimuth and elevation plus other details from your city location.







IsCatalogInMostPopularTable: catalog: 58693, numindb: 22
Update: records affected: 1



GetName: 58693 HULIANWANG JISHU SHIYAN*

Hit Count: updated at: Wed, 17 Apr 2024 03:46:52 GMT